#datetime,building,power
2023-09-07T00:00:00,axn,30.39
2023-09-07T00:01:00,axn,29.97
2023-09-07T00:02:00,axn,29.84
2023-09-07T00:03:00,axn,30.08
2023-09-07T00:04:00,axn,30.01
2023-09-07T00:05:00,axn,30.23
2023-09-07T00:06:00,axn,29.87
2023-09-07T00:07:00,axn,29.91
2023-09-07T00:08:00,axn,29.98
2023-09-07T00:09:00,axn,30.13
2023-09-07T00:10:00,axn,30.23
2023-09-07T00:11:00,axn,30.04
2023-09-07T00:12:00,axn,29.93
2023-09-07T00:13:00,axn,30.38
2023-09-07T00:14:00,axn,29.99
2023-09-07T00:15:00,axn,29.82
2023-09-07T00:16:00,axn,29.79
2023-09-07T00:17:00,axn,30.18
2023-09-07T00:18:00,axn,29.93
2023-09-07T00:19:00,axn,29.97
2023-09-07T00:20:00,axn,29.81
2023-09-07T00:21:00,axn,30.35
2023-09-07T00:22:00,axn,32.91
2023-09-07T00:23:00,axn,32.60
2023-09-07T00:24:00,axn,32.74
2023-09-07T00:25:00,axn,30.11
2023-09-07T00:26:00,axn,29.76
2023-09-07T00:27:00,axn,29.74
2023-09-07T00:28:00,axn,29.50
2023-09-07T00:29:00,axn,29.66
2023-09-07T00:30:00,axn,29.61
2023-09-07T00:31:00,axn,28.55
2023-09-07T00:32:00,axn,28.46
2023-09-07T00:33:00,axn,28.82
2023-09-07T00:34:00,axn,32.91
2023-09-07T00:35:00,axn,33.19
2023-09-07T00:36:00,axn,33.88
2023-09-07T00:37:00,axn,28.70
2023-09-07T00:38:00,axn,29.21
2023-09-07T00:39:00,axn,28.86
2023-09-07T00:40:00,axn,28.78
2023-09-07T00:41:00,axn,28.84
2023-09-07T00:42:00,axn,28.88
2023-09-07T00:43:00,axn,28.86
2023-09-07T00:44:00,axn,28.76
2023-09-07T00:45:00,axn,28.73
2023-09-07T00:46:00,axn,29.18
2023-09-07T00:47:00,axn,28.68
2023-09-07T00:48:00,axn,28.91
2023-09-07T00:49:00,axn,28.93
2023-09-07T00:50:00,axn,28.96
2023-09-07T00:51:00,axn,28.96
2023-09-07T00:52:00,axn,28.93
2023-09-07T00:53:00,axn,29.03
2023-09-07T00:54:00,axn,29.04
2023-09-07T00:55:00,axn,29.01
2023-09-07T00:56:00,axn,28.94
2023-09-07T00:57:00,axn,29.36
2023-09-07T00:58:00,axn,29.01
2023-09-07T00:59:00,axn,29.01
2023-09-07T01:00:00,axn,29.11
2023-09-07T01:01:00,axn,29.00
2023-09-07T01:02:00,axn,29.09
2023-09-07T01:03:00,axn,28.91
2023-09-07T01:04:00,axn,29.35
2023-09-07T01:05:00,axn,29.13
2023-09-07T01:06:00,axn,29.02
2023-09-07T01:07:00,axn,29.04
2023-09-07T01:08:00,axn,28.94
2023-09-07T01:09:00,axn,29.36
2023-09-07T01:10:00,axn,29.04
2023-09-07T01:11:00,axn,29.14
2023-09-07T01:12:00,axn,28.82
2023-09-07T01:13:00,axn,29.16
2023-09-07T01:14:00,axn,29.18
2023-09-07T01:15:00,axn,29.26
2023-09-07T01:16:00,axn,29.19
2023-09-07T01:17:00,axn,29.75
2023-09-07T01:18:00,axn,30.14
2023-09-07T01:19:00,axn,29.58
2023-09-07T01:20:00,axn,29.26
2023-09-07T01:21:00,axn,29.59
2023-09-07T01:22:00,axn,29.46
2023-09-07T01:23:00,axn,29.50
2023-09-07T01:24:00,axn,29.41
2023-09-07T01:25:00,axn,29.82
2023-09-07T01:26:00,axn,29.43
2023-09-07T01:27:00,axn,29.81
2023-09-07T01:28:00,axn,29.36
2023-09-07T01:29:00,axn,29.32
2023-09-07T01:30:00,axn,29.39
2023-09-07T01:31:00,axn,29.64
2023-09-07T01:32:00,axn,29.73
2023-09-07T01:33:00,axn,30.11
2023-09-07T01:34:00,axn,30.03
2023-09-07T01:35:00,axn,30.07
2023-09-07T01:36:00,axn,30.40
2023-09-07T01:37:00,axn,30.00
2023-09-07T01:38:00,axn,30.02
2023-09-07T01:39:00,axn,29.95
2023-09-07T01:40:00,axn,30.05
2023-09-07T01:41:00,axn,30.33
2023-09-07T01:42:00,axn,30.22
2023-09-07T01:43:00,axn,30.19
2023-09-07T01:44:00,axn,29.98
2023-09-07T01:45:00,axn,29.99
2023-09-07T01:46:00,axn,30.37
2023-09-07T01:47:00,axn,30.26
2023-09-07T01:48:00,axn,29.88
2023-09-07T01:49:00,axn,30.17
2023-09-07T01:50:00,axn,29.85
2023-09-07T01:51:00,axn,29.79
2023-09-07T01:52:00,axn,30.02
2023-09-07T01:53:00,axn,30.30
2023-09-07T01:54:00,axn,29.93
2023-09-07T01:55:00,axn,30.07
2023-09-07T01:56:00,axn,30.17
2023-09-07T01:57:00,axn,29.95
2023-09-07T01:58:00,axn,30.01
2023-09-07T01:59:00,axn,29.96
2023-09-07T02:00:00,axn,29.87
2023-09-07T02:01:00,axn,29.94
2023-09-07T02:02:00,axn,30.21
2023-09-07T02:03:00,axn,30.18
2023-09-07T02:04:00,axn,30.46
2023-09-07T02:05:00,axn,30.16
2023-09-07T02:06:00,axn,29.98
2023-09-07T02:07:00,axn,30.11
2023-09-07T02:08:00,axn,30.52
2023-09-07T02:09:00,axn,30.23
2023-09-07T02:10:00,axn,30.50
2023-09-07T02:11:00,axn,30.28
2023-09-07T02:12:00,axn,30.12
2023-09-07T02:13:00,axn,30.26
2023-09-07T02:14:00,axn,30.66
2023-09-07T02:15:00,axn,30.08
2023-09-07T02:16:00,axn,30.06
2023-09-07T02:17:00,axn,30.17
2023-09-07T02:18:00,axn,30.06
2023-09-07T02:19:00,axn,29.89
2023-09-07T02:20:00,axn,29.82
2023-09-07T02:21:00,axn,29.75
2023-09-07T02:22:00,axn,29.69
2023-09-07T02:23:00,axn,29.69
2023-09-07T02:24:00,axn,30.81
2023-09-07T02:25:00,axn,29.79
2023-09-07T02:26:00,axn,30.24
2023-09-07T02:27:00,axn,29.89
2023-09-07T02:28:00,axn,30.01
2023-09-07T02:29:00,axn,30.09
2023-09-07T02:30:00,axn,30.40
2023-09-07T02:31:00,axn,30.12
2023-09-07T02:32:00,axn,30.08
2023-09-07T02:33:00,axn,30.05
2023-09-07T02:34:00,axn,30.48
2023-09-07T02:35:00,axn,30.06
2023-09-07T02:36:00,axn,30.02
2023-09-07T02:37:00,axn,30.14
2023-09-07T02:38:00,axn,30.35
2023-09-07T02:39:00,axn,29.99
2023-09-07T02:40:00,axn,29.95
2023-09-07T02:41:00,axn,30.71
2023-09-07T02:42:00,axn,29.57
2023-09-07T02:43:00,axn,29.38
2023-09-07T02:44:00,axn,29.44
2023-09-07T02:45:00,axn,29.78
2023-09-07T02:46:00,axn,29.32
2023-09-07T02:47:00,axn,29.47
2023-09-07T02:48:00,axn,29.59
2023-09-07T02:49:00,axn,29.55
2023-09-07T02:50:00,axn,29.64
2023-09-07T02:51:00,axn,29.65
2023-09-07T02:52:00,axn,29.55
2023-09-07T02:53:00,axn,29.65
2023-09-07T02:54:00,axn,29.49
2023-09-07T02:55:00,axn,29.34
2023-09-07T02:56:00,axn,29.36
2023-09-07T02:57:00,axn,29.58
2023-09-07T02:58:00,axn,29.01
2023-09-07T02:59:00,axn,28.90
2023-09-07T03:00:00,axn,28.89
2023-09-07T03:01:00,axn,28.92
2023-09-07T03:02:00,axn,29.14
2023-09-07T03:03:00,axn,29.10
2023-09-07T03:04:00,axn,29.25
2023-09-07T03:05:00,axn,32.09
2023-09-07T03:06:00,axn,32.09
2023-09-07T03:07:00,axn,29.04
2023-09-07T03:08:00,axn,28.98
2023-09-07T03:09:00,axn,29.06
2023-09-07T03:10:00,axn,29.18
2023-09-07T03:11:00,axn,29.21
2023-09-07T03:12:00,axn,29.54
2023-09-07T03:13:00,axn,29.34
2023-09-07T03:14:00,axn,29.08
2023-09-07T03:15:00,axn,29.12
2023-09-07T03:16:00,axn,29.14
2023-09-07T03:17:00,axn,29.05
2023-09-07T03:18:00,axn,29.07
2023-09-07T03:19:00,axn,29.09
2023-09-07T03:20:00,axn,28.87
2023-09-07T03:21:00,axn,29.12
2023-09-07T03:22:00,axn,29.04
2023-09-07T03:23:00,axn,28.91
2023-09-07T03:24:00,axn,28.86
2023-09-07T03:25:00,axn,28.94
2023-09-07T03:26:00,axn,39.39
2023-09-07T03:27:00,axn,39.32
2023-09-07T03:28:00,axn,39.42
2023-09-07T03:29:00,axn,39.43
2023-09-07T03:30:00,axn,29.03
2023-09-07T03:31:00,axn,29.16
2023-09-07T03:32:00,axn,29.08
2023-09-07T03:33:00,axn,29.23
2023-09-07T03:34:00,axn,28.81
2023-09-07T03:35:00,axn,28.85
2023-09-07T03:36:00,axn,29.01
2023-09-07T03:37:00,axn,29.14
2023-09-07T03:38:00,axn,29.00
2023-09-07T03:39:00,axn,28.84
2023-09-07T03:40:00,axn,29.32
2023-09-07T03:41:00,axn,29.21
2023-09-07T03:42:00,axn,29.21
2023-09-07T03:43:00,axn,31.90
2023-09-07T03:44:00,axn,29.33
2023-09-07T03:45:00,axn,29.23
2023-09-07T03:46:00,axn,29.29
2023-09-07T03:47:00,axn,29.19
2023-09-07T03:48:00,axn,29.16
2023-09-07T03:49:00,axn,29.24
2023-09-07T03:50:00,axn,29.65
2023-09-07T03:51:00,axn,29.36
2023-09-07T03:52:00,axn,29.38
2023-09-07T03:53:00,axn,29.90
2023-09-07T03:54:00,axn,29.63
2023-09-07T03:55:00,axn,29.67
2023-09-07T03:56:00,axn,29.42
2023-09-07T03:57:00,axn,29.43
2023-09-07T03:58:00,axn,29.72
2023-09-07T03:59:00,axn,29.46
2023-09-07T04:00:00,axn,29.27
2023-09-07T04:01:00,axn,29.42
2023-09-07T04:02:00,axn,29.27
2023-09-07T04:03:00,axn,29.23
2023-09-07T04:04:00,axn,29.15
2023-09-07T04:05:00,axn,31.92
2023-09-07T04:06:00,axn,31.87
2023-09-07T04:07:00,axn,31.93
2023-09-07T04:08:00,axn,29.08
2023-09-07T04:09:00,axn,29.06
2023-09-07T04:10:00,axn,29.06
2023-09-07T04:11:00,axn,28.92
2023-09-07T04:12:00,axn,28.97
2023-09-07T04:13:00,axn,28.85
2023-09-07T04:14:00,axn,28.94
2023-09-07T04:15:00,axn,28.70
2023-09-07T04:16:00,axn,34.93
2023-09-07T04:17:00,axn,35.01
2023-09-07T04:18:00,axn,35.26
2023-09-07T04:19:00,axn,29.84
2023-09-07T04:20:00,axn,29.27
2023-09-07T04:21:00,axn,29.18
2023-09-07T04:22:00,axn,29.26
2023-09-07T04:23:00,axn,29.26
2023-09-07T04:24:00,axn,29.32
2023-09-07T04:25:00,axn,29.51
2023-09-07T04:26:00,axn,29.75
2023-09-07T04:27:00,axn,29.45
2023-09-07T04:28:00,axn,29.79
2023-09-07T04:29:00,axn,29.83
2023-09-07T04:30:00,axn,29.43
2023-09-07T04:31:00,axn,29.46
2023-09-07T04:32:00,axn,29.88
2023-09-07T04:33:00,axn,29.36
2023-09-07T04:34:00,axn,30.02
2023-09-07T04:35:00,axn,29.35
2023-09-07T04:36:00,axn,30.02
2023-09-07T04:37:00,axn,29.71
2023-09-07T04:38:00,axn,29.37
2023-09-07T04:39:00,axn,29.96
2023-09-07T04:40:00,axn,29.32
2023-09-07T04:41:00,axn,29.09
2023-09-07T04:42:00,axn,29.41
2023-09-07T04:43:00,axn,29.39
2023-09-07T04:44:00,axn,29.24
2023-09-07T04:45:00,axn,29.18
2023-09-07T04:46:00,axn,29.08
2023-09-07T04:47:00,axn,28.89
2023-09-07T04:48:00,axn,28.92
2023-09-07T04:49:00,axn,29.15
2023-09-07T04:50:00,axn,28.69
2023-09-07T04:51:00,axn,28.75
2023-09-07T04:52:00,axn,28.53
2023-09-07T04:53:00,axn,28.62
2023-09-07T04:54:00,axn,28.70
2023-09-07T04:55:00,axn,28.75
2023-09-07T04:56:00,axn,28.80
2023-09-07T04:57:00,axn,28.89
2023-09-07T04:58:00,axn,28.59
2023-09-07T04:59:00,axn,28.67
2023-09-07T05:00:00,axn,28.66
2023-09-07T05:01:00,axn,28.31
2023-09-07T05:02:00,axn,28.07
2023-09-07T05:03:00,axn,28.23
2023-09-07T05:04:00,axn,28.35
2023-09-07T05:05:00,axn,27.95
2023-09-07T05:06:00,axn,28.05
2023-09-07T05:07:00,axn,28.35
2023-09-07T05:08:00,axn,28.30
2023-09-07T05:09:00,axn,30.30
2023-09-07T05:10:00,axn,30.07
2023-09-07T05:11:00,axn,28.77
2023-09-07T05:12:00,axn,29.42
2023-09-07T05:13:00,axn,29.34
2023-09-07T05:14:00,axn,44.81
2023-09-07T05:15:00,axn,28.60
2023-09-07T05:16:00,axn,29.09
2023-09-07T05:17:00,axn,29.06
2023-09-07T05:18:00,axn,29.06
2023-09-07T05:19:00,axn,29.12
2023-09-07T05:20:00,axn,29.53
2023-09-07T05:21:00,axn,29.23
2023-09-07T05:22:00,axn,29.44
2023-09-07T05:23:00,axn,29.15
2023-09-07T05:24:00,axn,29.26
2023-09-07T05:25:00,axn,29.21
2023-09-07T05:26:00,axn,29.38
2023-09-07T05:27:00,axn,29.51
2023-09-07T05:28:00,axn,29.53
2023-09-07T05:29:00,axn,29.98
2023-09-07T05:30:00,axn,29.90
2023-09-07T05:31:00,axn,32.62
2023-09-07T05:32:00,axn,32.91
2023-09-07T05:33:00,axn,32.66
2023-09-07T05:34:00,axn,32.70
2023-09-07T05:35:00,axn,32.38
2023-09-07T05:36:00,axn,32.42
2023-09-07T05:37:00,axn,32.33
2023-09-07T05:38:00,axn,32.29
2023-09-07T05:39:00,axn,32.24
2023-09-07T05:40:00,axn,32.48
2023-09-07T05:41:00,axn,33.09
2023-09-07T05:42:00,axn,33.04
2023-09-07T05:43:00,axn,32.92
2023-09-07T05:44:00,axn,32.74
2023-09-07T05:45:00,axn,32.71
2023-09-07T05:46:00,axn,32.57
2023-09-07T05:47:00,axn,32.80
2023-09-07T05:48:00,axn,32.50
2023-09-07T05:49:00,axn,32.78
2023-09-07T05:50:00,axn,32.33
2023-09-07T05:51:00,axn,32.64
2023-09-07T05:52:00,axn,32.55
2023-09-07T05:53:00,axn,32.54
2023-09-07T05:54:00,axn,32.61
2023-09-07T05:55:00,axn,32.62
2023-09-07T05:56:00,axn,32.44
2023-09-07T05:57:00,axn,32.79
2023-09-07T05:58:00,axn,32.57
2023-09-07T05:59:00,axn,32.63
2023-09-07T06:00:00,axn,32.69
2023-09-07T06:01:00,axn,33.05
2023-09-07T06:02:00,axn,32.98
2023-09-07T06:03:00,axn,32.99
2023-09-07T06:04:00,axn,33.06
2023-09-07T06:05:00,axn,33.01
2023-09-07T06:06:00,axn,33.36
2023-09-07T06:07:00,axn,33.13
2023-09-07T06:08:00,axn,33.38
2023-09-07T06:09:00,axn,33.05
2023-09-07T06:10:00,axn,33.06
2023-09-07T06:11:00,axn,32.49
2023-09-07T06:12:00,axn,33.16
2023-09-07T06:13:00,axn,32.76
2023-09-07T06:14:00,axn,32.37
2023-09-07T06:15:00,axn,32.28
2023-09-07T06:16:00,axn,32.29
2023-09-07T06:17:00,axn,32.05
2023-09-07T06:18:00,axn,32.60
2023-09-07T06:19:00,axn,32.44
2023-09-07T06:20:00,axn,32.03
2023-09-07T06:21:00,axn,31.81
2023-09-07T06:22:00,axn,31.27
2023-09-07T06:23:00,axn,31.65
2023-09-07T06:24:00,axn,31.38
2023-09-07T06:25:00,axn,30.99
2023-09-07T06:26:00,axn,31.28
2023-09-07T06:27:00,axn,30.86
2023-09-07T06:28:00,axn,31.50
2023-09-07T06:29:00,axn,31.13
2023-09-07T06:30:00,axn,31.28
2023-09-07T06:31:00,axn,31.44
2023-09-07T06:32:00,axn,31.38
2023-09-07T06:33:00,axn,31.30
2023-09-07T06:34:00,axn,31.31
2023-09-07T06:35:00,axn,31.44
2023-09-07T06:36:00,axn,33.41
2023-09-07T06:37:00,axn,41.18
2023-09-07T06:38:00,axn,32.41
2023-09-07T06:39:00,axn,32.42
2023-09-07T06:40:00,axn,32.03
2023-09-07T06:41:00,axn,34.85
2023-09-07T06:42:00,axn,35.01
2023-09-07T06:43:00,axn,33.60
2023-09-07T06:44:00,axn,31.86
2023-09-07T06:45:00,axn,31.93
2023-09-07T06:46:00,axn,31.78
2023-09-07T06:47:00,axn,31.91
2023-09-07T06:48:00,axn,32.66
2023-09-07T06:49:00,axn,32.42
2023-09-07T06:50:00,axn,32.14
2023-09-07T06:51:00,axn,31.87
2023-09-07T06:52:00,axn,32.01
2023-09-07T06:53:00,axn,32.00
2023-09-07T06:54:00,axn,35.74
2023-09-07T06:55:00,axn,31.82
2023-09-07T06:56:00,axn,32.86
2023-09-07T06:57:00,axn,33.16
2023-09-07T06:58:00,axn,32.62
2023-09-07T06:59:00,axn,31.07
2023-09-07T07:00:00,axn,31.86
2023-09-07T07:01:00,axn,51.18
2023-09-07T07:02:00,axn,36.46
2023-09-07T07:03:00,axn,38.29
2023-09-07T07:04:00,axn,37.61
2023-09-07T07:05:00,axn,37.51
2023-09-07T07:06:00,axn,38.05
2023-09-07T07:07:00,axn,38.40
2023-09-07T07:08:00,axn,38.20
2023-09-07T07:09:00,axn,38.35
2023-09-07T07:10:00,axn,38.01
2023-09-07T07:11:00,axn,37.83
2023-09-07T07:12:00,axn,39.45
2023-09-07T07:13:00,axn,38.59
2023-09-07T07:14:00,axn,38.34
2023-09-07T07:15:00,axn,62.16
2023-09-07T07:16:00,axn,38.35
2023-09-07T07:17:00,axn,38.18
2023-09-07T07:18:00,axn,38.63
2023-09-07T07:19:00,axn,38.13
2023-09-07T07:20:00,axn,37.04
2023-09-07T07:21:00,axn,37.65
2023-09-07T07:22:00,axn,37.79
2023-09-07T07:23:00,axn,37.39
2023-09-07T07:24:00,axn,37.39
2023-09-07T07:25:00,axn,37.05
2023-09-07T07:26:00,axn,37.10
2023-09-07T07:27:00,axn,37.19
2023-09-07T07:28:00,axn,37.12
2023-09-07T07:29:00,axn,40.84
2023-09-07T07:30:00,axn,40.94
2023-09-07T07:31:00,axn,41.01
2023-09-07T07:32:00,axn,42.52
2023-09-07T07:33:00,axn,42.30
2023-09-07T07:34:00,axn,42.22
2023-09-07T07:35:00,axn,42.18
2023-09-07T07:36:00,axn,42.75
2023-09-07T07:37:00,axn,42.78
2023-09-07T07:38:00,axn,42.39
2023-09-07T07:39:00,axn,41.89
2023-09-07T07:40:00,axn,42.43
2023-09-07T07:41:00,axn,46.22
2023-09-07T07:42:00,axn,44.80
2023-09-07T07:43:00,axn,45.01
2023-09-07T07:44:00,axn,40.24
2023-09-07T07:45:00,axn,40.20
2023-09-07T07:46:00,axn,40.19
2023-09-07T07:47:00,axn,40.21
2023-09-07T07:48:00,axn,40.01
2023-09-07T07:49:00,axn,40.01
2023-09-07T07:50:00,axn,40.09
2023-09-07T07:51:00,axn,39.85
2023-09-07T07:52:00,axn,45.58
2023-09-07T07:53:00,axn,45.90
2023-09-07T07:54:00,axn,49.58
2023-09-07T07:55:00,axn,50.02
2023-09-07T07:56:00,axn,49.78
2023-09-07T07:57:00,axn,44.07
2023-09-07T07:58:00,axn,41.16
2023-09-07T07:59:00,axn,41.27
2023-09-07T08:00:00,axn,41.13
2023-09-07T08:01:00,axn,41.12
2023-09-07T08:02:00,axn,41.03
2023-09-07T08:03:00,axn,40.79
2023-09-07T08:04:00,axn,40.84
2023-09-07T08:05:00,axn,41.34
2023-09-07T08:06:00,axn,41.35
2023-09-07T08:07:00,axn,41.51
2023-09-07T08:08:00,axn,41.33
2023-09-07T08:09:00,axn,41.48
2023-09-07T08:10:00,axn,41.29
2023-09-07T08:11:00,axn,41.25
2023-09-07T08:12:00,axn,41.08
2023-09-07T08:13:00,axn,40.95
2023-09-07T08:14:00,axn,41.10
2023-09-07T08:15:00,axn,41.40
2023-09-07T08:16:00,axn,41.51
2023-09-07T08:17:00,axn,41.56
2023-09-07T08:18:00,axn,41.79
2023-09-07T08:19:00,axn,41.87
2023-09-07T08:20:00,axn,41.53
2023-09-07T08:21:00,axn,41.15
2023-09-07T08:22:00,axn,41.05
2023-09-07T08:23:00,axn,40.98
2023-09-07T08:24:00,axn,44.50
2023-09-07T08:25:00,axn,44.90
2023-09-07T08:26:00,axn,41.79
2023-09-07T08:27:00,axn,42.09
2023-09-07T08:28:00,axn,41.79
2023-09-07T08:29:00,axn,41.87
2023-09-07T08:30:00,axn,41.98
2023-09-07T08:31:00,axn,42.85
2023-09-07T08:32:00,axn,41.81
2023-09-07T08:33:00,axn,42.19
2023-09-07T08:34:00,axn,41.53
2023-09-07T08:35:00,axn,41.61
2023-09-07T08:36:00,axn,41.52
2023-09-07T08:37:00,axn,41.94
2023-09-07T08:38:00,axn,42.01
2023-09-07T08:39:00,axn,43.17
2023-09-07T08:40:00,axn,43.23
2023-09-07T08:41:00,axn,43.46
2023-09-07T08:42:00,axn,43.34
2023-09-07T08:43:00,axn,43.24
2023-09-07T08:44:00,axn,57.62
2023-09-07T08:45:00,axn,57.35
2023-09-07T08:46:00,axn,57.72
2023-09-07T08:47:00,axn,57.13
2023-09-07T08:48:00,axn,57.05
2023-09-07T08:49:00,axn,43.26
2023-09-07T08:50:00,axn,43.27
2023-09-07T08:51:00,axn,43.74
2023-09-07T08:52:00,axn,43.68
2023-09-07T08:53:00,axn,43.71
2023-09-07T08:54:00,axn,45.23
2023-09-07T08:55:00,axn,45.23
2023-09-07T08:56:00,axn,44.95
2023-09-07T08:57:00,axn,44.60
2023-09-07T08:58:00,axn,44.99
2023-09-07T08:59:00,axn,43.45
2023-09-07T09:00:00,axn,44.67
2023-09-07T09:01:00,axn,44.58
2023-09-07T09:02:00,axn,44.82
2023-09-07T09:03:00,axn,44.92
2023-09-07T09:04:00,axn,45.05
2023-09-07T09:05:00,axn,44.91
2023-09-07T09:06:00,axn,45.33
2023-09-07T09:07:00,axn,45.29
2023-09-07T09:08:00,axn,45.32
2023-09-07T09:09:00,axn,46.09
2023-09-07T09:10:00,axn,45.59
2023-09-07T09:11:00,axn,45.63
2023-09-07T09:12:00,axn,45.45
2023-09-07T09:13:00,axn,45.37
2023-09-07T09:14:00,axn,45.65
2023-09-07T09:15:00,axn,45.62
2023-09-07T09:16:00,axn,46.55
2023-09-07T09:17:00,axn,46.50
2023-09-07T09:18:00,axn,46.15
2023-09-07T09:19:00,axn,46.40
2023-09-07T09:20:00,axn,44.36
2023-09-07T09:21:00,axn,44.36
2023-09-07T09:22:00,axn,44.19
2023-09-07T09:23:00,axn,44.40
2023-09-07T09:24:00,axn,44.30
2023-09-07T09:25:00,axn,44.53
2023-09-07T09:26:00,axn,44.40
2023-09-07T09:27:00,axn,44.52
2023-09-07T09:28:00,axn,44.47
2023-09-07T09:29:00,axn,44.53
2023-09-07T09:30:00,axn,45.94
2023-09-07T09:31:00,axn,45.70
2023-09-07T09:32:00,axn,44.25
2023-09-07T09:33:00,axn,44.57
2023-09-07T09:34:00,axn,44.81
2023-09-07T09:35:00,axn,44.22
2023-09-07T09:36:00,axn,46.09
2023-09-07T09:37:00,axn,46.07
2023-09-07T09:38:00,axn,62.22
2023-09-07T09:39:00,axn,46.77
2023-09-07T09:40:00,axn,47.26
2023-09-07T09:41:00,axn,47.20
2023-09-07T09:42:00,axn,45.20
2023-09-07T09:43:00,axn,47.74
2023-09-07T09:44:00,axn,44.97
2023-09-07T09:45:00,axn,45.02
2023-09-07T09:46:00,axn,44.78
2023-09-07T09:47:00,axn,44.09
2023-09-07T09:48:00,axn,44.30
2023-09-07T09:49:00,axn,45.36
2023-09-07T09:50:00,axn,45.56
2023-09-07T09:51:00,axn,45.66
2023-09-07T09:52:00,axn,46.14
2023-09-07T09:53:00,axn,45.81
2023-09-07T09:54:00,axn,45.83
2023-09-07T09:55:00,axn,46.10
2023-09-07T09:56:00,axn,46.71
2023-09-07T09:57:00,axn,45.35
2023-09-07T09:58:00,axn,45.56
2023-09-07T09:59:00,axn,45.49
2023-09-07T10:00:00,axn,45.38
2023-09-07T10:01:00,axn,45.01
2023-09-07T10:02:00,axn,44.26
2023-09-07T10:03:00,axn,43.97
2023-09-07T10:04:00,axn,44.01
2023-09-07T10:05:00,axn,43.90
2023-09-07T10:06:00,axn,44.19
2023-09-07T10:07:00,axn,44.44
2023-09-07T10:08:00,axn,44.26
2023-09-07T10:09:00,axn,44.33
2023-09-07T10:10:00,axn,44.17
2023-09-07T10:11:00,axn,44.25
2023-09-07T10:12:00,axn,44.34
2023-09-07T10:13:00,axn,44.30
2023-09-07T10:14:00,axn,45.22
2023-09-07T10:15:00,axn,44.66
2023-09-07T10:16:00,axn,44.93
2023-09-07T10:17:00,axn,44.70
2023-09-07T10:18:00,axn,44.87
2023-09-07T10:19:00,axn,45.05
2023-09-07T10:20:00,axn,44.68
2023-09-07T10:21:00,axn,45.13
2023-09-07T10:22:00,axn,45.06
2023-09-07T10:23:00,axn,44.91
2023-09-07T10:24:00,axn,44.56
2023-09-07T10:25:00,axn,44.53
2023-09-07T10:26:00,axn,44.51
2023-09-07T10:27:00,axn,44.77
2023-09-07T10:28:00,axn,44.96
2023-09-07T10:29:00,axn,44.78
2023-09-07T10:30:00,axn,44.75
2023-09-07T10:31:00,axn,55.32
2023-09-07T10:32:00,axn,55.24
2023-09-07T10:33:00,axn,55.35
2023-09-07T10:34:00,axn,56.04
2023-09-07T10:35:00,axn,45.21
2023-09-07T10:36:00,axn,44.80
2023-09-07T10:37:00,axn,44.71
2023-09-07T10:38:00,axn,45.15
2023-09-07T10:39:00,axn,45.01
2023-09-07T10:40:00,axn,48.13
2023-09-07T10:41:00,axn,45.29
2023-09-07T10:42:00,axn,46.27
2023-09-07T10:43:00,axn,45.68
2023-09-07T10:44:00,axn,45.76
2023-09-07T10:45:00,axn,44.73
2023-09-07T10:46:00,axn,44.95
2023-09-07T10:47:00,axn,44.56
2023-09-07T10:48:00,axn,44.99
2023-09-07T10:49:00,axn,44.63
2023-09-07T10:50:00,axn,44.57
2023-09-07T10:51:00,axn,44.86
2023-09-07T10:52:00,axn,44.55
2023-09-07T10:53:00,axn,44.48
2023-09-07T10:54:00,axn,44.90
2023-09-07T10:55:00,axn,44.93
2023-09-07T10:56:00,axn,44.68
2023-09-07T10:57:00,axn,44.66
2023-09-07T10:58:00,axn,44.33
2023-09-07T10:59:00,axn,45.49
2023-09-07T11:00:00,axn,45.39
2023-09-07T11:01:00,axn,45.41
2023-09-07T11:02:00,axn,45.49
2023-09-07T11:03:00,axn,45.38
2023-09-07T11:04:00,axn,45.78
2023-09-07T11:05:00,axn,45.73
2023-09-07T11:06:00,axn,46.09
2023-09-07T11:07:00,axn,46.05
2023-09-07T11:08:00,axn,45.83
2023-09-07T11:09:00,axn,45.89
2023-09-07T11:10:00,axn,45.74
2023-09-07T11:11:00,axn,45.84
2023-09-07T11:12:00,axn,44.80
2023-09-07T11:13:00,axn,46.49
2023-09-07T11:14:00,axn,47.85
2023-09-07T11:15:00,axn,48.20
2023-09-07T11:16:00,axn,47.41
2023-09-07T11:17:00,axn,44.55
2023-09-07T11:18:00,axn,44.80
2023-09-07T11:19:00,axn,45.41
2023-09-07T11:20:00,axn,44.82
2023-09-07T11:21:00,axn,44.75
2023-09-07T11:22:00,axn,44.76
2023-09-07T11:23:00,axn,47.29
2023-09-07T11:24:00,axn,44.41
2023-09-07T11:25:00,axn,44.86
2023-09-07T11:26:00,axn,44.01
2023-09-07T11:27:00,axn,44.67
2023-09-07T11:28:00,axn,44.31
2023-09-07T11:29:00,axn,44.50
2023-09-07T11:30:00,axn,44.65
2023-09-07T11:31:00,axn,44.93
2023-09-07T11:32:00,axn,44.79
2023-09-07T11:33:00,axn,44.74
2023-09-07T11:34:00,axn,44.21
2023-09-07T11:35:00,axn,44.57
2023-09-07T11:36:00,axn,44.62
2023-09-07T11:37:00,axn,44.27
2023-09-07T11:38:00,axn,44.56
2023-09-07T11:39:00,axn,44.61
2023-09-07T11:40:00,axn,44.28
2023-09-07T11:41:00,axn,44.69
2023-09-07T11:42:00,axn,44.87
2023-09-07T11:43:00,axn,45.22
2023-09-07T11:44:00,axn,45.03
2023-09-07T11:45:00,axn,44.79
2023-09-07T11:46:00,axn,44.71
2023-09-07T11:47:00,axn,44.64
2023-09-07T11:48:00,axn,44.76
2023-09-07T11:49:00,axn,44.62
2023-09-07T11:50:00,axn,44.63
2023-09-07T11:51:00,axn,44.86
2023-09-07T11:52:00,axn,44.82
2023-09-07T11:53:00,axn,45.16
2023-09-07T11:54:00,axn,44.76
2023-09-07T11:55:00,axn,44.59
2023-09-07T11:56:00,axn,44.37
2023-09-07T11:57:00,axn,44.39
2023-09-07T11:58:00,axn,44.25
2023-09-07T11:59:00,axn,43.96
2023-09-07T12:00:00,axn,44.29
2023-09-07T12:01:00,axn,44.16
2023-09-07T12:02:00,axn,44.76
2023-09-07T12:03:00,axn,44.65
2023-09-07T12:04:00,axn,44.70
2023-09-07T12:05:00,axn,44.01
2023-09-07T12:06:00,axn,43.73
2023-09-07T12:07:00,axn,43.33
2023-09-07T12:08:00,axn,43.12
2023-09-07T12:09:00,axn,54.37
2023-09-07T12:10:00,axn,42.68
2023-09-07T12:11:00,axn,43.25
2023-09-07T12:12:00,axn,43.89
2023-09-07T12:13:00,axn,43.43
2023-09-07T12:14:00,axn,43.75
2023-09-07T12:15:00,axn,44.14
2023-09-07T12:16:00,axn,44.06
2023-09-07T12:17:00,axn,44.01
2023-09-07T12:18:00,axn,44.00
2023-09-07T12:19:00,axn,44.57
2023-09-07T12:20:00,axn,45.00
2023-09-07T12:21:00,axn,44.58
2023-09-07T12:22:00,axn,45.09
2023-09-07T12:23:00,axn,59.38
2023-09-07T12:24:00,axn,64.57
2023-09-07T12:25:00,axn,59.15
2023-09-07T12:26:00,axn,59.27
2023-09-07T12:27:00,axn,59.09
2023-09-07T12:28:00,axn,57.94
2023-09-07T12:29:00,axn,44.36
2023-09-07T12:30:00,axn,44.97
2023-09-07T12:31:00,axn,47.85
2023-09-07T12:32:00,axn,44.48
2023-09-07T12:33:00,axn,46.95
2023-09-07T12:34:00,axn,44.82
2023-09-07T12:35:00,axn,45.16
2023-09-07T12:36:00,axn,44.79
2023-09-07T12:37:00,axn,44.54
2023-09-07T12:38:00,axn,45.18
2023-09-07T12:39:00,axn,45.32
2023-09-07T12:40:00,axn,44.95
2023-09-07T12:41:00,axn,47.92
2023-09-07T12:42:00,axn,47.84
2023-09-07T12:43:00,axn,50.67
2023-09-07T12:44:00,axn,45.19
2023-09-07T12:45:00,axn,44.82
2023-09-07T12:46:00,axn,45.23
2023-09-07T12:47:00,axn,45.39
2023-09-07T12:48:00,axn,44.96
2023-09-07T12:49:00,axn,45.22
2023-09-07T12:50:00,axn,44.94
2023-09-07T12:51:00,axn,44.69
2023-09-07T12:52:00,axn,45.48
2023-09-07T12:53:00,axn,44.99
2023-09-07T12:54:00,axn,45.76
2023-09-07T12:55:00,axn,45.79
2023-09-07T12:56:00,axn,45.51
2023-09-07T12:57:00,axn,45.72
2023-09-07T12:58:00,axn,45.32
2023-09-07T12:59:00,axn,45.61
2023-09-07T13:00:00,axn,45.11
2023-09-07T13:01:00,axn,45.20
2023-09-07T13:02:00,axn,45.49
2023-09-07T13:03:00,axn,45.36
2023-09-07T13:04:00,axn,45.47
2023-09-07T13:05:00,axn,46.27
2023-09-07T13:06:00,axn,45.91
2023-09-07T13:07:00,axn,45.84
2023-09-07T13:08:00,axn,45.74
2023-09-07T13:09:00,axn,45.70
2023-09-07T13:10:00,axn,45.92
2023-09-07T13:11:00,axn,46.19
2023-09-07T13:12:00,axn,45.77
2023-09-07T13:13:00,axn,45.77
2023-09-07T13:14:00,axn,45.77
2023-09-07T13:15:00,axn,45.78
2023-09-07T13:16:00,axn,45.71
2023-09-07T13:17:00,axn,45.20
2023-09-07T13:18:00,axn,45.78